• In Hungary
  • List of Countries
  • For 7 days
  • Water Temperature
  • Satellite Maps
  • Weather Map
  • News
  • Weather Widgets
  • user-avatar
    Login

    Hourly Weather Szekszard

    Today, 19 June, Tuesday

    Time Temperature Precipitation Wind Pressure Humidity
    00:00 +19°C° 0 mm 2 mps 754 mmHg 88%
    01:00 +18°C° 0 mm 2 mps 754 mmHg 90%
    02:00 +18°C° 0 mm 2 mps 754 mmHg 90%
    03:00 +18°C° 0 mm 3 mps 754 mmHg 91%
    04:00 +17°C° 0 mm 3 mps 755 mmHg 92%
    05:00 +19°C° 0 mm 3 mps 755 mmHg 88%
    06:00 +20°C° 0 mm 3 mps 755 mmHg 83%
    07:00 +21°C° 0 mm 4 mps 756 mmHg 79%
    08:00 +23°C° 0.1 mm 4 mps 756 mmHg 74%
    09:00 +25°C° 0.1 mm 4 mps 756 mmHg 68%
    10:00 +27°C° 0.1 mm 4 mps 756 mmHg 63%
    11:00 +27°C° 0.4 mm 4 mps 756 mmHg 62%
    12:00 +28°C° 0.4 mm 4 mps 755 mmHg 61%
    13:00 +28°C° 0.4 mm 4 mps 755 mmHg 60%
    14:00 +28°C° 0.5 mm 4 mps 755 mmHg 61%
    15:00 +28°C° 0.5 mm 4 mps 755 mmHg 63%
    16:00 +28°C° 0.5 mm 4 mps 755 mmHg 64%
    17:00 +27°C° 0.4 mm 3 mps 755 mmHg 69%
    18:00 +26°C° 0.4 mm 3 mps 755 mmHg 75%
    19:00 +25°C° 0.4 mm 3 mps 755 mmHg 80%
    20:00 +24°C° 0 mm 3 mps 755 mmHg 82%
    21:00 +22°C° 0 mm 3 mps 756 mmHg 83%
    22:00 +21°C° 0 mm 3 mps 756 mmHg 85%
    23:00 +21°C° 0 mm 2 mps 756 mmHg 86%

    Tomorrow, 20 June, Wednesday

    Time Temperature Precipitation Wind Pressure Humidity
    00:00 +20°C° 0 mm 2 mps 756 mmHg 87%
    01:00 +20°C° 0 mm 2 mps 756 mmHg 88%
    02:00 +20°C° 0 mm 2 mps 756 mmHg 89%
    03:00 +20°C° 0 mm 2 mps 757 mmHg 89%
    04:00 +19°C° 0 mm 2 mps 757 mmHg 90%
    05:00 +21°C° 0 mm 2 mps 757 mmHg 87%
    06:00 +23°C° 0 mm 2 mps 757 mmHg 83%
    07:00 +24°C° 0 mm 3 mps 757 mmHg 79%
    08:00 +26°C° 0.5 mm 3 mps 757 mmHg 74%
    09:00 +27°C° 0.5 mm 3 mps 757 mmHg 69%
    10:00 +29°C° 0.5 mm 3 mps 757 mmHg 63%
    11:00 +30°C° 0.2 mm 3 mps 757 mmHg 59%
    12:00 +30°C° 0.2 mm 3 mps 757 mmHg 55%
    13:00 +31°C° 0.2 mm 3 mps 756 mmHg 51%
    14:00 +31°C° 0.1 mm 3 mps 756 mmHg 51%
    15:00 +31°C° 0.1 mm 2 mps 756 mmHg 51%
    16:00 +31°C° 0.1 mm 2 mps 755 mmHg 51%
    17:00 +30°C° 0 mm 2 mps 755 mmHg 56%
    18:00 +29°C° 0 mm 2 mps 755 mmHg 60%
    19:00 +28°C° 0 mm 1 mps 755 mmHg 65%
    20:00 +27°C° 0 mm 1 mps 755 mmHg 67%
    21:00 +25°C° 0 mm 1 mps 756 mmHg 69%
    22:00 +24°C° 0 mm 1 mps 756 mmHg 71%
    23:00 +24°C° 0 mm 1 mps 756 mmHg 73%

    Day after tomorrow, 21 June, Thursday

    Time Temperature Precipitation Wind Pressure Humidity
    00:00 +23°C° 0 mm 1 mps 755 mmHg 75%
    01:00 +23°C° 0 mm 1 mps 755 mmHg 77%
    02:00 +23°C° 0 mm 1 mps 755 mmHg 78%
    03:00 +22°C° 0 mm 1 mps 755 mmHg 80%
    04:00 +22°C° 0 mm 1 mps 755 mmHg 81%
    05:00 +23°C° 0 mm 1 mps 755 mmHg 77%
    06:00 +25°C° 0 mm 1 mps 755 mmHg 74%
    07:00 +26°C° 0 mm 1 mps 755 mmHg 70%
    08:00 +28°C° 0.2 mm 1 mps 754 mmHg 66%
    09:00 +29°C° 0.2 mm 2 mps 754 mmHg 62%
    10:00 +30°C° 0.2 mm 2 mps 754 mmHg 58%
    11:00 +31°C° 0 mm 2 mps 753 mmHg 54%
    12:00 +32°C° 0 mm 2 mps 753 mmHg 50%
    13:00 +32°C° 0 mm 2 mps 752 mmHg 47%
    14:00 +33°C° 0 mm 3 mps 751 mmHg 48%
    15:00 +33°C° 0 mm 3 mps 751 mmHg 49%
    16:00 +33°C° 0 mm 3 mps 750 mmHg 49%
    17:00 +31°C° 0 mm 3 mps 750 mmHg 56%
    18:00 +29°C° 0 mm 3 mps 750 mmHg 62%
    19:00 +28°C° 0 mm 2 mps 750 mmHg 69%
    20:00 +27°C° 0 mm 2 mps 750 mmHg 71%
    21:00 +26°C° 0 mm 2 mps 750 mmHg 72%
    22:00 +24°C° 0 mm 2 mps 750 mmHg 74%
    23:00 +24°C° 0.2 mm 2 mps 750 mmHg 77%

    22 June, Friday

    Time Temperature Precipitation Wind Pressure Humidity
    00:00 +23°C° 0.2 mm 2 mps 749 mmHg 79%
    01:00 +23°C° 0.2 mm 2 mps 749 mmHg 82%
    02:00 +22°C° 0.4 mm 3 mps 749 mmHg 84%
    03:00 +21°C° 0.4 mm 3 mps 749 mmHg 86%
    04:00 +21°C° 0.4 mm 4 mps 749 mmHg 89%
    05:00 +20°C° 0.1 mm 5 mps 750 mmHg 86%
    06:00 +20°C° 0.1 mm 7 mps 750 mmHg 84%
    07:00 +18°C° 0.1 mm 8 mps 751 mmHg 81%
    08:00 +18°C° 0.1 mm 8 mps 751 mmHg 75%
    09:00 +18°C° 0.1 mm 9 mps 752 mmHg 68%
    10:00 +18°C° 0.1 mm 9 mps 752 mmHg 61%
    11:00 +17°C° 0.1 mm 9 mps 753 mmHg 62%
    12:00 +15°C° 0.1 mm 9 mps 753 mmHg 62%
    13:00 +13°C° 0.1 mm 9 mps 754 mmHg 63%
    14:00 +13°C° 0.2 mm 8 mps 754 mmHg 67%
    15:00 +12°C° 0.2 mm 7 mps 755 mmHg 70%
    16:00 +11°C° 0.2 mm 6 mps 755 mmHg 73%
    17:00 +13°C° 0.1 mm 5 mps 756 mmHg 74%
    18:00 +13°C° 0.1 mm 5 mps 756 mmHg 75%
    19:00 +13°C° 0.1 mm 4 mps 757 mmHg 75%
    20:00 +13°C° 0 mm 4 mps 757 mmHg 78%
    21:00 +12°C° 0 mm 5 mps 757 mmHg 81%
    22:00 +12°C° 0 mm 5 mps 758 mmHg 84%
    23:00 +10°C° 0 mm 5 mps 758 mmHg 86%

    23 June, Saturday

    Time Temperature Precipitation Wind Pressure Humidity
    00:00 +10°C° 0 mm 4 mps 757 mmHg 88%
    01:00 +10°C° 0 mm 4 mps 757 mmHg 90%
    02:00 +8°C° 0 mm 4 mps 757 mmHg 90%
    03:00 +9°C° 0 mm 3 mps 758 mmHg 90%
    04:00 +9°C° 0 mm 3 mps 758 mmHg 90%
    05:00 +10°C° 0 mm 3 mps 758 mmHg 84%
    06:00 +12°C° 0 mm 4 mps 758 mmHg 77%
    07:00 +14°C° 0 mm 4 mps 758 mmHg 70%
    08:00 +17°C° 0 mm 4 mps 758 mmHg 64%
    09:00 +18°C° 0 mm 4 mps 758 mmHg 59%
    10:00 +20°C° 0 mm 4 mps 758 mmHg 53%
    11:00 +21°C° 0 mm 4 mps 757 mmHg 51%
    12:00 +22°C° 0 mm 4 mps 757 mmHg 49%
    13:00 +22°C° 0 mm 4 mps 756 mmHg 46%
    14:00 +22°C° 0 mm 4 mps 756 mmHg 48%
    15:00 +22°C° 0 mm 4 mps 756 mmHg 49%
    16:00 +22°C° 0 mm 4 mps 756 mmHg 50%
    17:00 +21°C° 0 mm 3 mps 756 mmHg 56%
    18:00 +19°C° 0 mm 3 mps 756 mmHg 62%
    19:00 +18°C° 0 mm 2 mps 756 mmHg 68%
    20:00 +17°C° 0 mm 2 mps 756 mmHg 71%
    21:00 +15°C° 0 mm 2 mps 756 mmHg 74%
    22:00 +14°C° 0 mm 2 mps 756 mmHg 77%
    23:00 +14°C° 0 mm 2 mps 756 mmHg 78%

    24 June, Sunday

    Time Temperature Precipitation Wind Pressure Humidity
    00:00 +13°C° 0 mm 2 mps 757 mmHg 79%
    01:00 +12°C° 0 mm 3 mps 757 mmHg 80%
    02:00 +11°C° 0 mm 3 mps 757 mmHg 79%
    03:00 +11°C° 0 mm 3 mps 757 mmHg 78%
    04:00 +11°C° 0 mm 3 mps 757 mmHg 77%
    05:00 +12°C° 0 mm 3 mps 757 mmHg 71%
    06:00 +14°C° 0 mm 4 mps 757 mmHg 66%
    07:00 +15°C° 0 mm 4 mps 757 mmHg 60%
    08:00 +17°C° 0 mm 4 mps 757 mmHg 56%
    09:00 +19°C° 0 mm 4 mps 757 mmHg 53%
    10:00 +20°C° 0 mm 4 mps 757 mmHg 49%
    11:00 +21°C° 0 mm 4 mps 757 mmHg 48%
    12:00 +22°C° 0 mm 4 mps 756 mmHg 47%
    13:00 +22°C° 0 mm 4 mps 756 mmHg 46%
    14:00 +22°C° 0 mm 4 mps 756 mmHg 47%
    15:00 +22°C° 0 mm 3 mps 756 mmHg 48%
    16:00 +22°C° 0 mm 3 mps 755 mmHg 48%
    17:00 +21°C° 0 mm 3 mps 755 mmHg 54%
    18:00 +20°C° 0 mm 2 mps 755 mmHg 60%
    19:00 +19°C° 0 mm 2 mps 755 mmHg 66%
    20:00 +17°C° 0 mm 2 mps 756 mmHg 69%
    21:00 +16°C° 0 mm 1 mps 756 mmHg 72%
    22:00 +15°C° 0 mm 1 mps 756 mmHg 75%
    23:00 +14°C° 0 mm 1 mps 756 mmHg 77%
    Show more